Regional Weather Roundup
Issued by NWS

Home | Current Version | Previous Version | Graphics & Text | Print | Product List | Glossary On
Versions: 1 2 3 4 5 6 7 8 9 10 11 12 13 14 15 16 17 18 19 20 21 22 23 24 25 26 27 28 29 30 31 32 33 34 35 36 37 38 39 40 41 42 43 44 45 46 47 48 49 50
000
ASUS45 KPSR 230500
RWRAZ

ARIZONA HOURLY REGIONAL WEATHER ROUNDUP
NATIONAL WEATHER SERVICE PHOENIX AZ
1000 PM MST FRI MAY 22 2015

NOTE: FAIR INDICATES FEW OR NO CLOUDS BELOW 12,000 FEET WITH NO
SIGNIFICANT WEATHER AND/OR OBSTRUCTIONS TO VISIBILITY.

AZZ001>003-036-230600-
NORTHWEST ARIZONA

CITY           SKY/WX    TMP DP  RH WIND       PRES   REMARKS
KINGMAN        PTCLDY    52  40  63 E7        29.98R
$$

AZZ004>008-015-016-018-230600-
NORTH CENTRAL ARIZONA

CITY           SKY/WX    TMP DP  RH WIND       PRES   REMARKS
GRAND CANYON   MOCLDY    34  32  92 CALM      30.05R
WILLIAMS       CLOUDY    37  36  93 CALM      30.12R
PRESCOTT       CLOUDY    50  33  52 W5        30.03R
FLAGSTAFF      NOT AVBL
PAYSON         CLOUDY    54  28  37 W5G12     30.05R
PAGE           MOCLDY    54  36  50 NW3       29.96R
$$

AZZ009>014-017-230600-
NORTHEAST ARIZONA

CITY           SKY/WX    TMP DP  RH WIND       PRES   REMARKS
WINSLOW        NOT AVBL
SAINT JOHNS    MOCLDY    54  26  34 S5        30.02R
WINDOW ROCK    MOCLDY    50  23  34 SW8       30.06R
$$

AZZ023-230600-
GREATER PHOENIX AREA

CITY           SKY/WX    TMP DP  RH WIND       PRES   REMARKS
PHOENIX        CLEAR     72  34  24 SW7       29.91R
LUKE AFB       CLEAR     70  37  30 SW12      29.90R
DEER VALLEY    CLEAR     68  34  28 SW8       29.92R
SCOTTSDALE     CLEAR     70  34  26 SW5       29.94R
MESA-GATEWAY   CLEAR     70  34  26 W6        29.95R
$$

AZZ027-028-230600-
SOUTHWEST MARICOPA COUNTY AND PINAL COUNTY

CITY           SKY/WX    TMP DP  RH WIND       PRES   REMARKS
CASA GRANDE    CLEAR     68  36  30 W6        29.93R
GILA BEND      FAIR      67  36  32 SW5       29.92R
$$

AZZ503-504-507>509-230600-
SOUTHEAST ARIZONA

CITY           SKY/WX    TMP DP  RH WIND       PRES   REMARKS
TUCSON         CLEAR     67  31  26 W8        30.01R
DAVIS-MONTHAN  CLEAR     67  32  27 W8        30.00R
NOGALES        MOCLDY    59  36  42 CALM      30.04R
SIERRA VISTA   PTCLDY    58  34  40 N9        30.06R
SAFFORD        PTCLDY    68  33  27 NW15G21   29.94R
$$

AZZ020-021-025-026-031-230600-
SOUTHWEST ARIZONA

CITY           SKY/WX    TMP DP  RH WIND       PRES   REMARKS
YUMA           CLEAR     68  45  43 NW12      29.95R
$$

CAZ031-033-041-043-047-048-061-230600-
SOUTHERN CALIFORNIA

CITY           SKY/WX    TMP DP  RH WIND       PRES   REMARKS
DOWNTOWN L.A.  CLOUDY    63  51  65 CALM      30.06R
L.A. AIRPORT   CLOUDY    61  54  77 W14       30.07R
SAN DIEGO      MOCLDY    63  53  70 NW6       30.11R
BURBANK        MOCLDY    60  50  69 SE5       30.06R
ONTARIO        CLOUDY    56  51  84 W3        30.07R
RIVERSIDE      CLOUDY    59  51  75 CALM      30.08R
PALM SPRINGS   CLEAR     68  44  42 N16G30    29.94R
EL CENTRO NAS  CLEAR     66  43  43 W24       29.97R
IMPERIAL       CLEAR     66  45  46 W18       29.94R
BLYTHE         PTCLDY    68  47  46 SE10      29.90R
$$

NVZ020-UTZ003-230600-
SOUTHERN NEVADA-UTAH

CITY           SKY/WX    TMP DP  RH WIND       PRES   REMARKS
LAS VEGAS      NOT AVBL
SALT LAKE CITY CLOUDY    56  43  61 E7        29.89F
$$

NMZ009-TXZ055-230600-
NEW MEXICO-WEST TEXAS

CITY           SKY/WX    TMP DP  RH WIND       PRES   REMARKS
ALBUQUERQUE    PTCLDY    63  34  33 S10       29.96R
EL PASO        CLOUDY    79  12   8 W18G32    29.93R
$$


........................KEY........................
SKY/WX - SKY CONDITION/WEATHER
TMP    - TEMPERATURE IN FAHRENHEIT
DP     - DEW POINT IN FAHRENHEIT
RH     - RELATIVE HUMIDITY IN PERCENT
WIND   - DIRECTION AND SPEED IN MILES PER HOUR (MPH)
VRB    - VARIABLE WIND DIRECTION
PRES   - MEAN SEA LEVEL PRESSURE IN INCHES OF MERCURY
         F - FALLING PRESSURE   R - RISING PRESSURE
         S - STEADY PRESSURE
VSB    - VISIBILITY IN MILES
HX     - HEAT INDEX IN FAHRENHEIT
WCI    - WIND CHILL INDEX IN FAHRENHEIT
TC     - TEMPERATURE IN CELSIUS WHICH IS ALSO KNOWN AS
         TEMPERATURE IN CENTIGRADE
AFB    - AIR FORCE BASE
         LUKE AFB IS LUKE AIR FORCE BASE
         DAVIS-MONTHAN IS DAVIS-MONTHAN AIR FORCE BASE
NAS    - NAVAL AIR STATION
         EL CENTRO NAS IS EL CENTRO NAVAL AIR STATION
N/A    - NOT AVAILABLE




USA.gov is the U.S. government's official web portal to all federal, state and local government web resources and services.